START_TIME,STEP,MOV.,M34,t_acc.,L5,t_acc.,L18,t_acc.,L14,t_acc.
1980-11-15 15:00:13.290 ,0,0,0.,12.0,0.,12.0,0.,12.0,0.,12.0
1980-11-15 15:00:25.290 ,0,0,0.,12.0,0.,12.0,0.,12.0,0.,12.0
1980-11-15 15:00:37.290 ,1,1,0.,12.0,0.,12.0,0.,12.0,0.,12.0
1980-11-15 15:00:49.290 ,1,1,0.,12.0,0.,12.0,0.,12.0,0.,12.0
1980-11-15 15:01:01.290 ,1,0,0.,12.0,0.,12.0,0.,12.0,0.,12.0
1980-11-15 15:01:13.290 ,1,0,0.,12.0,0.,12.0,0.,12.0,0.,12.0
1980-11-15 15:01:25.290 ,2,1,0.,12.0,0.,12.0,0.,12.0,0.,12.0
1980-11-15 15:01:37.290 ,2,1,0.,12.0,0.,12.0,0.,12.0,0.,12.0
1980-11-15 15:01:49.290 ,2,0,0.,12.0,0.,12.0,0.,12.0,0.,12.0
1980-11-15 15:02:01.290 ,2,0,0.,12.0,0.,12.0,0.,12.0,0.,12.0
1980-11-15 15:02:13.290 ,3,1,0.,12.0,0.,12.0,0.,12.0,0.,12.0
1980-11-15 15:02:25.290 ,3,1,0.,12.0,0.,12.0,0.,12.0,0.,12.0
1980-11-15 15:02:37.290 ,3,0,0.,12.0,0.,12.0,0.,12.0,0.,12.0
1980-11-15 15:02:49.290 ,3,0,0.,12.0,0.,12.0,0.,12.0,0.,12.0
1980-11-15 15:03:01.290 ,4,1,0.,12.0,0.,12.0,0.,12.0,0.,12.0
1980-11-15 15:03:13.290 ,4,1,0.,12.0,0.,12.0,0.,12.0,0.,12.0
1980-11-15 15:03:25.290 ,4,0,0.,12.0,0.,12.0,0.,12.0,0.,12.0
1980-11-15 15:03:37.290 ,4,0,0.,12.0,0.,12.0,0.,12.0,0.,12.0
1980-11-15 15:03:49.290 ,5,1,0.,12.0,0.,12.0,0.,12.0,0.,12.0
1980-11-15 15:04:01.290 ,5,1,0.,12.0,0.,12.0,0.,12.0,0.,12.0
1980-11-15 15:04:13.290 ,5,0,0.,12.0,0.,12.0,0.,12.0,0.,12.0
1980-11-15 15:04:25.290 ,5,0,0.,12.0,0.,12.0,0.,12.0,0.,12.0
1980-11-15 15:04:37.290 ,6,1,0.,12.0,0.,12.0,0.,12.0,0.,12.0
1980-11-15 15:04:49.290 ,6,1,0.,12.0,0.,12.0,0.,12.0,0.,12.0
1980-11-15 15:05:01.290 ,6,0,0.,12.0,0.,12.0,0.,12.0,0.,12.0
1980-11-15 15:05:13.290 ,6,0,0.,12.0,0.,12.0,0.,12.0,0.,12.0
1980-11-15 15:05:25.290 ,7,1,0.,12.0,0.,12.0,0.,12.0,0.,12.0
1980-11-15 15:05:37.290 ,7,1,0.,12.0,1.,12.0,0.,12.0,0.,12.0
1980-11-15 15:05:49.290 ,7,0,0.,12.0,6.,12.0,0.,12.0,0.,12.0
1980-11-15 15:06:01.290 ,7,0,0.,12.0,5.,12.0,0.,12.0,0.,12.0
1980-11-15 15:06:13.290 ,7,1,0.,12.0,1.,12.0,0.,12.0,0.,12.0
1980-11-15 15:06:25.290 ,7,1,0.,12.0,6.,12.0,0.,12.0,0.,12.0
1980-11-15 15:06:37.290 ,7,0,0.,12.0,4.,12.0,0.,12.0,0.,12.0
1980-11-15 15:06:49.290 ,7,0,0.,12.0,2.,12.0,0.,12.0,0.,12.0
1980-11-15 15:07:01.290 ,6,1,0.,12.0,4.,12.0,0.,12.0,0.,12.0
1980-11-15 15:07:13.290 ,6,1,0.,12.0,1.,12.0,0.,12.0,0.,12.0
1980-11-15 15:07:25.290 ,6,0,0.,12.0,0.,12.0,0.,12.0,0.,12.0
1980-11-15 15:07:37.290 ,6,0,0.,12.0,0.,12.0,0.,12.0,0.,12.0
1980-11-15 15:07:49.290 ,5,1,0.,12.0,0.,12.0,0.,12.0,0.,12.0
1980-11-15 15:08:01.290 ,5,1,0.,12.0,0.,12.0,0.,12.0,0.,12.0
1980-11-15 15:08:13.290 ,5,0,0.,12.0,0.,12.0,0.,12.0,0.,12.0
1980-11-15 15:08:25.290 ,5,0,0.,12.0,0.,12.0,0.,12.0,0.,12.0
1980-11-15 15:08:37.290 ,4,1,0.,12.0,0.,12.0,0.,12.0,0.,12.0
1980-11-15 15:08:49.290 ,4,1,0.,12.0,0.,12.0,0.,12.0,0.,12.0
1980-11-15 15:09:01.290 ,4,0,0.,12.0,0.,12.0,0.,12.0,0.,12.0
1980-11-15 15:09:13.290 ,4,0,0.,12.0,0.,12.0,0.,12.0,0.,12.0
1980-11-15 15:09:25.290 ,3,1,0.,12.0,0.,12.0,0.,12.0,0.,12.0
1980-11-15 15:09:37.290 ,3,1,0.,12.0,0.,12.0,0.,12.0,0.,12.0
1980-11-15 15:09:49.290 ,3,0,0.,12.0,0.,12.0,0.,12.0,0.,12.0
1980-11-15 15:10:01.290 ,3,0,0.,12.0,0.,12.0,0.,12.0,0.,12.0
1980-11-15 15:10:13.290 ,2,1,0.,12.0,0.,12.0,0.,12.0,0.,12.0
1980-11-15 15:10:25.290 ,2,1,0.,12.0,0.,12.0,0.,12.0,0.,12.0
1980-11-15 15:10:37.290 ,2,0,0.,12.0,0.,12.0,0.,12.0,0.,12.0
1980-11-15 15:10:49.290 ,2,0,0.,12.0,0.,12.0,0.,12.0,0.,12.0
1980-11-15 15:11:01.290 ,1,1,0.,12.0,0.,12.0,0.,12.0,0.,12.0
1980-11-15 15:11:13.290 ,1,1,0.,12.0,0.,12.0,0.,12.0,0.,12.0
1980-11-15 15:11:25.290 ,1,0,0.,12.0,0.,12.0,0.,12.0,0.,12.0
1980-11-15 15:11:37.290 ,1,0,0.,12.0,0.,12.0,0.,12.0,0.,12.0
1980-11-15 15:11:49.290 ,0,1,0.,12.0,0.,12.0,0.,12.0,0.,12.0
1980-11-15 15:12:01.290 ,0,1,0.,12.0,0.,12.0,0.,12.0,0.,12.0
1980-11-15 15:12:13.290 ,0,0,0.,12.0,0.,12.0,0.,12.0,0.,12.0
1980-11-15 15:12:25.290 ,0,0,0.,12.0,0.,12.0,0.,12.0,0.,12.0
1980-11-15 15:12:37.290 ,0,1,0.,12.0,0.,12.0,0.,12.0,0.,12.0
1980-11-15 15:12:49.290 ,0,1,0.,12.0,0.,12.0,0.,12.0,0.,12.0
1980-11-15 15:13:01.290 ,0,0,0.,12.0,0.,12.0,0.,12.0,0.,12.0
1980-11-15 15:13:13.290 ,0,0,0.,12.0,0.,12.0,0.,12.0,0.,12.0
1980-11-15 15:13:25.290 ,1,1,0.,12.0,0.,12.0,0.,12.0,0.,12.0
1980-11-15 15:13:37.290 ,1,1,0.,12.0,0.,12.0,0.,12.0,0.,12.0
1980-11-15 15:13:49.290 ,1,0,0.,12.0,0.,12.0,0.,12.0,0.,12.0
1980-11-15 15:14:01.290 ,1,0,0.,12.0,0.,12.0,0.,12.0,0.,12.0
1980-11-15 15:14:13.290 ,2,1,0.,12.0,0.,12.0,0.,12.0,0.,12.0
1980-11-15 15:14:25.290 ,2,1,0.,12.0,0.,12.0,0.,12.0,0.,12.0
1980-11-15 15:14:37.290 ,2,0,0.,12.0,0.,12.0,0.,12.0,0.,12.0
1980-11-15 15:14:49.290 ,2,0,0.,12.0,0.,12.0,0.,12.0,0.,12.0
1980-11-15 15:15:01.290 ,3,1,0.,12.0,0.,12.0,0.,12.0,0.,12.0
1980-11-15 15:15:13.290 ,3,1,0.,12.0,0.,12.0,0.,12.0,0.,12.0
1980-11-15 15:15:25.290 ,3,0,0.,12.0,0.,12.0,0.,12.0,0.,12.0
1980-11-15 15:15:37.290 ,3,0,0.,12.0,0.,12.0,0.,12.0,0.,12.0
1980-11-15 15:15:49.290 ,4,1,0.,12.0,0.,12.0,0.,12.0,0.,12.0
1980-11-15 15:16:01.290 ,4,1,0.,12.0,0.,12.0,0.,12.0,0.,12.0
1980-11-15 15:16:13.290 ,4,0,0.,12.0,0.,12.0,0.,12.0,0.,12.0
1980-11-15 15:16:25.290 ,4,0,0.,12.0,0.,12.0,0.,12.0,0.,12.0
1980-11-15 15:16:37.290 ,5,1,0.,12.0,0.,12.0,0.,12.0,0.,12.0
1980-11-15 15:16:49.290 ,5,1,0.,12.0,0.,12.0,0.,12.0,0.,12.0
1980-11-15 15:17:01.290 ,5,0,0.,12.0,0.,12.0,0.,12.0,0.,12.0
1980-11-15 15:17:13.290 ,5,0,0.,12.0,0.,12.0,0.,12.0,0.,12.0
1980-11-15 15:17:25.290 ,6,1,0.,12.0,0.,12.0,0.,12.0,0.,12.0
1980-11-15 15:17:37.290 ,6,1,0.,12.0,0.,12.0,0.,12.0,0.,12.0
1980-11-15 15:17:49.290 ,6,0,0.,12.0,0.,12.0,0.,12.0,0.,12.0
1980-11-15 15:18:01.290 ,6,0,0.,12.0,0.,12.0,0.,12.0,0.,12.0
1980-11-15 15:18:13.290 ,7,1,0.,12.0,0.,12.0,0.,12.0,0.,12.0
1980-11-15 15:18:25.290 ,7,1,0.,12.0,4.,12.0,0.,12.0,0.,12.0
1980-11-15 15:18:37.290 ,7,0,0.,12.0,4.,12.0,0.,12.0,0.,12.0
1980-11-15 15:18:49.290 ,7,0,0.,12.0,9.,12.0,0.,12.0,0.,12.0
1980-11-15 15:19:01.290 ,7,1,0.,12.0,1.,12.0,0.,12.0,0.,12.0
1980-11-15 15:19:13.290 ,7,1,0.,12.0,2.,12.0,0.,12.0,0.,12.0
1980-11-15 15:19:25.290 ,7,0,0.,12.0,5.,12.0,0.,12.0,1.,12.0
1980-11-15 15:19:37.290 ,7,0,0.,12.0,3.,12.0,0.,12.0,0.,12.0
1980-11-15 15:19:49.290 ,6,1,0.,12.0,6.,12.0,0.,12.0,0.,12.0
1980-11-15 15:20:01.290 ,6,1,0.,12.0,3.,12.0,0.,12.0,0.,12.0
1980-11-15 15:20:13.290 ,6,0,0.,12.0,0.,12.0,0.,12.0,0.,12.0
1980-11-15 15:20:25.290 ,6,0,0.,12.0,0.,12.0,0.,12.0,0.,12.0
1980-11-15 15:20:37.290 ,5,1,0.,12.0,0.,12.0,0.,12.0,0.,12.0
1980-11-15 15:20:49.290 ,5,1,0.,12.0,0.,12.0,0.,12.0,0.,12.0
1980-11-15 15:21:01.290 ,5,0,0.,12.0,0.,12.0,0.,12.0,0.,12.0
1980-11-15 15:21:13.290 ,5,0,0.,12.0,0.,12.0,0.,12.0,0.,12.0
1980-11-15 15:21:25.290 ,4,1,0.,12.0,0.,12.0,0.,12.0,0.,12.0
1980-11-15 15:21:37.290 ,4,1,0.,12.0,0.,12.0,0.,12.0,0.,12.0
1980-11-15 15:21:49.290 ,4,0,0.,12.0,0.,12.0,0.,12.0,0.,12.0
1980-11-15 15:22:01.290 ,4,0,0.,12.0,0.,12.0,0.,12.0,0.,12.0
1980-11-15 15:22:13.290 ,3,1,0.,12.0,0.,12.0,0.,12.0,0.,12.0
1980-11-15 15:22:25.290 ,3,1,0.,12.0,0.,12.0,0.,12.0,0.,12.0
1980-11-15 15:22:37.290 ,3,0,0.,12.0,0.,12.0,0.,12.0,0.,12.0
1980-11-15 15:22:49.290 ,3,0,0.,12.0,0.,12.0,0.,12.0,0.,12.0
1980-11-15 15:23:01.290 ,2,1,0.,12.0,0.,12.0,0.,12.0,0.,12.0
1980-11-15 15:23:13.290 ,2,1,0.,12.0,0.,12.0,0.,12.0,0.,12.0
1980-11-15 15:23:25.290 ,2,0,0.,12.0,0.,12.0,0.,12.0,0.,12.0
1980-11-15 15:23:37.290 ,2,0,0.,12.0,0.,12.0,0.,12.0,0.,12.0
1980-11-15 15:23:49.290 ,1,1,0.,12.0,0.,12.0,0.,12.0,0.,12.0
1980-11-15 15:24:01.290 ,1,1,0.,12.0,0.,12.0,0.,12.0,0.,12.0
1980-11-15 15:24:13.290 ,1,0,0.,12.0,0.,12.0,0.,12.0,0.,12.0
1980-11-15 15:24:25.290 ,1,0,0.,12.0,0.,12.0,0.,12.0,0.,12.0
1980-11-15 15:24:37.290 ,0,1,0.,12.0,0.,12.0,0.,12.0,0.,12.0
1980-11-15 15:24:49.290 ,0,1,0.,12.0,0.,12.0,0.,12.0,0.,12.0
1980-11-15 15:25:01.290 ,0,0,0.,12.0,0.,12.0,0.,12.0,0.,12.0
1980-11-15 15:25:13.290 ,0,0,0.,12.0,0.,12.0,0.,12.0,0.,12.0
1980-11-15 15:25:25.290 ,0,1,0.,12.0,0.,12.0,0.,12.0,0.,12.0
1980-11-15 15:25:37.290 ,0,1,0.,12.0,0.,12.0,0.,12.0,0.,12.0
1980-11-15 15:25:49.290 ,0,0,0.,12.0,0.,12.0,0.,12.0,0.,12.0
1980-11-15 15:26:01.290 ,0,0,0.,12.0,0.,12.0,0.,12.0,0.,12.0
1980-11-15 15:26:13.290 ,1,1,0.,12.0,0.,12.0,0.,12.0,0.,12.0
1980-11-15 15:26:25.290 ,1,1,0.,12.0,0.,12.0,0.,12.0,0.,12.0
1980-11-15 15:26:37.290 ,1,0,0.,12.0,0.,12.0,0.,12.0,0.,12.0
1980-11-15 15:26:49.290 ,1,0,0.,12.0,0.,12.0,0.,12.0,0.,12.0
1980-11-15 15:27:01.290 ,2,1,0.,12.0,0.,12.0,0.,12.0,0.,12.0
1980-11-15 15:27:13.290 ,2,1,0.,12.0,0.,12.0,0.,12.0,0.,12.0
1980-11-15 15:27:25.290 ,2,0,0.,12.0,0.,12.0,0.,12.0,0.,12.0
1980-11-15 15:27:37.290 ,2,0,0.,12.0,0.,12.0,0.,12.0,0.,12.0
1980-11-15 15:27:49.290 ,3,1,0.,12.0,0.,12.0,0.,12.0,0.,12.0
1980-11-15 15:28:01.290 ,3,1,0.,12.0,0.,12.0,0.,12.0,0.,12.0
1980-11-15 15:28:13.290 ,3,0,0.,12.0,0.,12.0,0.,12.0,0.,12.0
1980-11-15 15:28:25.290 ,3,0,0.,12.0,0.,12.0,0.,12.0,0.,12.0
1980-11-15 15:28:37.290 ,4,1,0.,12.0,0.,12.0,0.,12.0,0.,12.0
1980-11-15 15:28:49.290 ,4,1,0.,12.0,0.,12.0,0.,12.0,0.,12.0
1980-11-15 15:29:01.290 ,4,0,0.,12.0,0.,12.0,0.,12.0,0.,12.0
1980-11-15 15:29:13.290 ,4,0,0.,12.0,0.,12.0,0.,12.0,0.,12.0
1980-11-15 15:29:25.290 ,5,1,0.,12.0,0.,12.0,0.,12.0,0.,12.0
1980-11-15 15:29:37.290 ,5,1,0.,12.0,0.,12.0,0.,12.0,0.,12.0
1980-11-15 15:29:49.290 ,5,0,0.,12.0,0.,12.0,0.,12.0,0.,12.0
1980-11-15 15:30:01.290 ,5,0,0.,12.0,0.,12.0,0.,12.0,0.,12.0
1980-11-15 15:30:13.290 ,6,1,0.,12.0,0.,12.0,0.,12.0,0.,12.0
1980-11-15 15:30:25.290 ,6,1,0.,12.0,0.,12.0,0.,12.0,0.,12.0
1980-11-15 15:30:37.290 ,6,0,0.,12.0,0.,12.0,0.,12.0,0.,12.0
1980-11-15 15:30:49.290 ,6,0,0.,12.0,0.,12.0,0.,12.0,0.,12.0
1980-11-15 15:31:01.290 ,7,1,0.,12.0,0.,12.0,0.,12.0,0.,12.0
1980-11-15 15:31:13.290 ,7,1,0.,12.0,3.,12.0,0.,12.0,0.,12.0
1980-11-15 15:31:25.290 ,7,0,0.,12.0,1.,12.0,0.,12.0,0.,12.0
1980-11-15 15:31:37.290 ,7,0,0.,12.0,6.,12.0,0.,12.0,0.,12.0
1980-11-15 15:31:49.290 ,7,1,0.,12.0,4.,12.0,0.,12.0,0.,12.0
1980-11-15 15:32:01.290 ,7,1,0.,12.0,3.,12.0,0.,12.0,1.,12.0
1980-11-15 15:32:13.290 ,7,0,0.,12.0,7.,12.0,0.,12.0,0.,12.0
1980-11-15 15:32:25.290 ,7,0,0.,12.0,7.,12.0,0.,12.0,0.,12.0
1980-11-15 15:32:37.290 ,6,1,0.,12.0,4.,12.0,0.,12.0,0.,12.0
1980-11-15 15:32:49.290 ,6,1,0.,12.0,1.,12.0,0.,12.0,0.,12.0
1980-11-15 15:33:01.290 ,6,0,0.,12.0,0.,12.0,0.,12.0,0.,12.0
1980-11-15 15:33:13.290 ,6,0,0.,12.0,0.,12.0,0.,12.0,0.,12.0
1980-11-15 15:33:25.290 ,5,1,0.,12.0,0.,12.0,0.,12.0,0.,12.0
1980-11-15 15:33:37.290 ,5,1,0.,12.0,0.,12.0,0.,12.0,0.,12.0
1980-11-15 15:33:49.290 ,5,0,0.,12.0,0.,12.0,0.,12.0,0.,12.0
1980-11-15 15:34:01.290 ,5,0,0.,12.0,0.,12.0,0.,12.0,0.,12.0
1980-11-15 15:34:13.290 ,4,1,0.,12.0,0.,12.0,0.,12.0,0.,12.0
1980-11-15 15:34:25.290 ,4,1,0.,12.0,0.,12.0,0.,12.0,0.,12.0
1980-11-15 15:34:37.290 ,4,0,0.,12.0,0.,12.0,0.,12.0,0.,12.0
1980-11-15 15:34:49.290 ,4,0,0.,12.0,0.,12.0,0.,12.0,0.,12.0
1980-11-15 15:35:01.290 ,3,1,0.,12.0,0.,12.0,0.,12.0,0.,12.0
1980-11-15 15:35:13.290 ,3,1,0.,12.0,0.,12.0,0.,12.0,0.,12.0
1980-11-15 15:35:25.290 ,3,0,0.,12.0,0.,12.0,0.,12.0,0.,12.0
1980-11-15 15:35:37.290 ,3,0,0.,12.0,0.,12.0,0.,12.0,0.,12.0
1980-11-15 15:35:49.290 ,2,1,0.,12.0,0.,12.0,0.,12.0,0.,12.0
1980-11-15 15:36:01.290 ,2,1,0.,12.0,0.,12.0,0.,12.0,0.,12.0
1980-11-15 15:36:13.290 ,2,0,0.,12.0,0.,12.0,0.,12.0,0.,12.0
1980-11-15 15:36:25.290 ,2,0,0.,12.0,0.,12.0,0.,12.0,0.,12.0
1980-11-15 15:36:37.290 ,1,1,0.,12.0,0.,12.0,0.,12.0,0.,12.0
1980-11-15 15:36:49.290 ,1,1,0.,12.0,0.,12.0,0.,12.0,0.,12.0
1980-11-15 15:37:01.290 ,0,0,0.,12.0,0.,12.0,0.,12.0,0.,12.0
1980-11-15 15:37:13.290 ,0,0,0.,12.0,0.,12.0,0.,12.0,0.,12.0
1980-11-15 15:38:15.690 ,0,0,,0,,0,,0,,0
1980-11-15 15:38:27.690 ,0,0,0.,12.0,0.,12.0,0.,12.0,0.,12.0
1980-11-15 15:38:37.290 ,0,0,,0,,0,,0,,0
1980-11-15 15:38:49.290 ,0,0,,0,,0,,0,,0
1980-11-15 15:51:39.690 ,0,0,,0,,0,,0,,0
1980-11-15 15:51:51.690 ,0,0,,0,,0,,0,,0
1980-11-15 15:51:49.290 ,1,1,0.,12.0,0.,12.0,0.,12.0,0.,12.0
1980-11-15 15:52:01.290 ,1,1,0.,12.0,0.,12.0,0.,12.0,0.,12.0
1980-11-15 15:52:13.290 ,1,0,0.,12.0,0.,12.0,0.,12.0,0.,12.0
1980-11-15 15:52:25.290 ,1,0,0.,12.0,0.,12.0,0.,12.0,0.,12.0
1980-11-15 15:52:37.290 ,2,1,0.,12.0,0.,12.0,0.,12.0,0.,12.0
1980-11-15 15:52:49.290 ,2,1,0.,12.0,0.,12.0,0.,12.0,0.,12.0
1980-11-15 15:53:01.290 ,2,0,0.,12.0,0.,12.0,0.,12.0,0.,12.0
1980-11-15 15:53:13.290 ,2,0,0.,12.0,0.,12.0,0.,12.0,0.,12.0
1980-11-15 15:53:25.290 ,3,1,0.,12.0,0.,12.0,0.,12.0,0.,12.0
1980-11-15 15:53:37.290 ,3,1,0.,12.0,0.,12.0,0.,12.0,0.,12.0
1980-11-15 15:53:49.290 ,3,0,0.,12.0,0.,12.0,0.,12.0,0.,12.0
1980-11-15 15:54:01.290 ,3,0,0.,12.0,0.,12.0,0.,12.0,0.,12.0
1980-11-15 15:54:13.290 ,4,1,0.,12.0,0.,12.0,0.,12.0,0.,12.0
1980-11-15 15:54:25.290 ,4,1,0.,12.0,0.,12.0,0.,12.0,0.,12.0
1980-11-15 15:54:37.290 ,4,0,0.,12.0,0.,12.0,0.,12.0,0.,12.0
1980-11-15 15:54:49.290 ,4,0,0.,12.0,0.,12.0,0.,12.0,0.,12.0
1980-11-15 15:55:01.290 ,5,1,0.,12.0,0.,12.0,0.,12.0,0.,12.0
1980-11-15 15:55:13.290 ,5,1,0.,12.0,0.,12.0,0.,12.0,0.,12.0
1980-11-15 15:55:25.290 ,5,0,0.,12.0,0.,12.0,0.,12.0,0.,12.0
1980-11-15 15:55:37.290 ,5,0,0.,12.0,0.,12.0,0.,12.0,0.,12.0
1980-11-15 15:55:49.290 ,6,1,0.,12.0,0.,12.0,0.,12.0,0.,12.0
1980-11-15 15:56:01.290 ,6,1,0.,12.0,0.,12.0,0.,12.0,0.,12.0
1980-11-15 15:56:13.290 ,6,0,0.,12.0,0.,12.0,0.,12.0,0.,12.0
1980-11-15 15:56:25.290 ,6,0,0.,12.0,0.,12.0,0.,12.0,0.,12.0
1980-11-15 15:56:37.290 ,7,1,0.,12.0,0.,12.0,0.,12.0,0.,12.0
1980-11-15 15:56:49.290 ,7,1,0.,12.0,0.,12.0,0.,12.0,0.,12.0
1980-11-15 15:57:01.290 ,7,0,0.,12.0,1.,12.0,0.,12.0,0.,12.0
1980-11-15 15:57:13.290 ,7,0,0.,12.0,0.,12.0,0.,12.0,0.,12.0
1980-11-15 15:57:25.290 ,7,1,0.,12.0,2.,12.0,0.,12.0,0.,12.0
1980-11-15 15:57:37.290 ,7,1,0.,12.0,3.,12.0,0.,12.0,0.,12.0
1980-11-15 15:57:49.290 ,7,0,0.,12.0,4.,12.0,0.,12.0,0.,12.0
1980-11-15 15:58:01.290 ,7,0,0.,12.0,1.,12.0,0.,12.0,0.,12.0
1980-11-15 15:58:13.290 ,6,1,0.,12.0,4.,12.0,0.,12.0,0.,12.0
1980-11-15 15:58:25.290 ,6,1,0.,12.0,0.,12.0,0.,12.0,0.,12.0
1980-11-15 15:58:37.290 ,6,0,0.,12.0,0.,12.0,0.,12.0,0.,12.0
1980-11-15 15:58:49.290 ,6,0,0.,12.0,0.,12.0,0.,12.0,0.,12.0
1980-11-15 15:59:01.290 ,5,1,0.,12.0,0.,12.0,0.,12.0,0.,12.0
1980-11-15 15:59:13.290 ,5,1,0.,12.0,0.,12.0,0.,12.0,0.,12.0
1980-11-15 15:59:25.290 ,5,0,0.,12.0,0.,12.0,0.,12.0,0.,12.0
1980-11-15 15:59:37.290 ,5,0,0.,12.0,0.,12.0,0.,12.0,0.,12.0
1980-11-15 15:59:49.290 ,4,1,0.,12.0,0.,12.0,0.,12.0,0.,12.0
1980-11-15 16:00:01.290 ,4,1,0.,12.0,0.,12.0,0.,12.0,0.,12.0
1980-11-15 16:00:13.290 ,0,0,0.,12.0,0.,12.0,0.,12.0,0.,12.0
1980-11-15 16:00:25.290 ,0,0,0.,12.0,0.,12.0,0.,12.0,0.,12.0
1980-11-15 16:03:18.690 ,0,0,,0,,0,,0,,0
1980-11-15 16:03:30.690 ,0,0,,0,,0,,0,,0
1980-11-15 16:03:25.290 ,0,0,0.,12.0,0.,12.0,0.,12.0,0.,12.0
1980-11-15 16:03:37.290 ,0,0,0.,12.0,0.,12.0,0.,12.0,0.,12.0
1980-11-15 16:03:49.290 ,0,1,0.,12.0,0.,12.0,0.,12.0,0.,12.0
1980-11-15 16:04:01.290 ,0,1,0.,12.0,0.,12.0,0.,12.0,0.,12.0
1980-11-15 16:04:13.290 ,0,0,0.,12.0,0.,12.0,0.,12.0,0.,12.0
1980-11-15 16:04:25.290 ,0,0,0.,12.0,0.,12.0,0.,12.0,0.,12.0
1980-11-15 16:04:37.290 ,1,1,0.,12.0,0.,12.0,0.,12.0,0.,12.0
1980-11-15 16:04:49.290 ,1,1,0.,12.0,0.,12.0,0.,12.0,0.,12.0
1980-11-15 16:05:01.290 ,1,0,0.,12.0,0.,12.0,0.,12.0,0.,12.0
1980-11-15 16:05:13.290 ,1,0,0.,12.0,0.,12.0,0.,12.0,0.,12.0
1980-11-15 16:05:25.290 ,2,1,0.,12.0,0.,12.0,0.,12.0,0.,12.0
1980-11-15 16:05:37.290 ,2,1,0.,12.0,0.,12.0,0.,12.0,0.,12.0
1980-11-15 16:05:49.290 ,2,0,0.,12.0,0.,12.0,0.,12.0,0.,12.0
1980-11-15 16:06:01.290 ,2,0,0.,12.0,0.,12.0,0.,12.0,0.,12.0
1980-11-15 16:06:13.290 ,3,1,0.,12.0,0.,12.0,0.,12.0,0.,12.0
1980-11-15 16:06:25.290 ,3,1,0.,12.0,0.,12.0,0.,12.0,0.,12.0
1980-11-15 16:06:37.290 ,3,0,0.,12.0,0.,12.0,0.,12.0,0.,12.0
1980-11-15 16:06:49.290 ,3,0,0.,12.0,0.,12.0,0.,12.0,0.,12.0
1980-11-15 16:07:01.290 ,4,1,0.,12.0,0.,12.0,0.,12.0,0.,12.0
1980-11-15 16:07:13.290 ,4,1,0.,12.0,0.,12.0,0.,12.0,0.,12.0
1980-11-15 16:07:25.290 ,4,0,0.,12.0,0.,12.0,0.,12.0,0.,12.0
1980-11-15 16:07:37.290 ,4,0,0.,12.0,0.,12.0,0.,12.0,0.,12.0
1980-11-15 16:07:49.290 ,5,1,0.,12.0,0.,12.0,0.,12.0,0.,12.0
1980-11-15 16:08:01.290 ,5,1,0.,12.0,0.,12.0,0.,12.0,0.,12.0
1980-11-15 16:08:13.290 ,5,0,0.,12.0,0.,12.0,0.,12.0,0.,12.0
1980-11-15 16:08:25.290 ,5,0,0.,12.0,0.,12.0,0.,12.0,0.,12.0
1980-11-15 16:08:37.290 ,6,1,0.,12.0,0.,12.0,0.,12.0,0.,12.0
1980-11-15 16:08:49.290 ,6,1,0.,12.0,0.,12.0,0.,12.0,0.,12.0
1980-11-15 16:09:01.290 ,6,0,0.,12.0,0.,12.0,0.,12.0,0.,12.0
1980-11-15 16:09:13.290 ,6,0,0.,12.0,0.,12.0,0.,12.0,0.,12.0
1980-11-15 16:09:25.290 ,7,1,0.,12.0,0.,12.0,0.,12.0,0.,12.0
1980-11-15 16:09:37.290 ,7,1,0.,12.0,3.,12.0,0.,12.0,0.,12.0
1980-11-15 16:09:49.290 ,7,0,0.,12.0,2.,12.0,0.,12.0,0.,12.0
1980-11-15 16:10:01.290 ,7,0,0.,12.0,4.,12.0,0.,12.0,0.,12.0
1980-11-15 16:10:13.290 ,7,1,0.,12.0,5.,12.0,0.,12.0,0.,12.0
1980-11-15 16:10:25.290 ,7,1,0.,12.0,4.,12.0,0.,12.0,0.,12.0
1980-11-15 16:10:37.290 ,7,0,0.,12.0,3.,12.0,0.,12.0,0.,12.0
1980-11-15 16:10:49.290 ,7,0,0.,12.0,8.,12.0,0.,12.0,0.,12.0
1980-11-15 16:11:01.290 ,6,1,0.,12.0,5.,12.0,0.,12.0,0.,12.0
1980-11-15 16:11:13.290 ,6,1,0.,12.0,2.,12.0,0.,12.0,0.,12.0
1980-11-15 16:11:25.290 ,6,0,0.,12.0,0.,12.0,0.,12.0,0.,12.0
1980-11-15 16:11:37.290 ,6,0,0.,12.0,0.,12.0,0.,12.0,0.,12.0
1980-11-15 16:11:49.290 ,5,1,0.,12.0,0.,12.0,0.,12.0,0.,12.0
1980-11-15 16:12:01.290 ,5,1,0.,12.0,0.,12.0,0.,12.0,0.,12.0
1980-11-15 16:12:13.290 ,5,0,0.,12.0,0.,12.0,0.,12.0,0.,12.0
1980-11-15 16:12:25.290 ,5,0,0.,12.0,0.,12.0,0.,12.0,0.,12.0
1980-11-15 16:12:37.290 ,4,1,0.,12.0,0.,12.0,0.,12.0,0.,12.0
1980-11-15 16:12:49.290 ,4,1,0.,12.0,0.,12.0,0.,12.0,0.,12.0
1980-11-15 16:13:01.290 ,4,0,0.,12.0,0.,12.0,0.,12.0,0.,12.0
1980-11-15 16:13:13.290 ,4,0,0.,12.0,0.,12.0,0.,12.0,0.,12.0
1980-11-15 16:13:25.290 ,3,1,0.,12.0,0.,12.0,0.,12.0,0.,12.0
1980-11-15 16:13:37.290 ,3,1,0.,12.0,0.,12.0,0.,12.0,0.,12.0
1980-11-15 16:13:49.290 ,3,0,0.,12.0,0.,12.0,0.,12.0,0.,12.0
1980-11-15 16:14:01.290 ,3,0,0.,12.0,0.,12.0,0.,12.0,0.,12.0
1980-11-15 16:15:01.290 ,0,0,0.,12.0,0.,12.0,0.,12.0,0.,12.0
1980-11-15 16:15:13.290 ,0,0,0.,12.0,0.,12.0,0.,12.0,0.,12.0
1980-11-15 16:15:25.290 ,0,0,0.,12.0,0.,12.0,0.,12.0,0.,12.0
1980-11-15 16:15:37.290 ,0,0,0.,12.0,0.,12.0,0.,12.0,0.,12.0
1980-11-15 16:15:49.290 ,0,1,0.,12.0,0.,12.0,0.,12.0,0.,12.0
1980-11-15 16:16:01.290 ,0,1,0.,12.0,0.,12.0,0.,12.0,0.,12.0
1980-11-15 16:16:13.290 ,0,0,0.,12.0,0.,12.0,0.,12.0,0.,12.0
1980-11-15 16:16:25.290 ,0,0,0.,12.0,0.,12.0,0.,12.0,0.,12.0
1980-11-15 16:16:37.290 ,0,1,0.,12.0,0.,12.0,0.,12.0,0.,12.0
1980-11-15 16:16:49.290 ,0,1,0.,12.0,0.,12.0,0.,12.0,0.,12.0
1980-11-15 16:17:01.290 ,0,0,0.,12.0,0.,12.0,0.,12.0,0.,12.0
1980-11-15 16:17:13.290 ,0,0,0.,12.0,0.,12.0,0.,12.0,0.,12.0
1980-11-15 16:17:25.290 ,1,1,0.,12.0,0.,12.0,0.,12.0,0.,12.0
1980-11-15 16:17:37.290 ,1,1,0.,12.0,0.,12.0,0.,12.0,0.,12.0
1980-11-15 16:17:49.290 ,1,0,0.,12.0,0.,12.0,0.,12.0,0.,12.0
1980-11-15 16:18:01.290 ,1,0,0.,12.0,0.,12.0,0.,12.0,0.,12.0
1980-11-15 16:18:13.290 ,2,1,0.,12.0,0.,12.0,0.,12.0,0.,12.0
1980-11-15 16:18:25.290 ,2,1,0.,12.0,0.,12.0,0.,12.0,0.,12.0
1980-11-15 16:18:37.290 ,2,0,0.,12.0,0.,12.0,0.,12.0,0.,12.0
1980-11-15 16:18:49.290 ,2,0,0.,12.0,0.,12.0,0.,12.0,0.,12.0
1980-11-15 16:19:01.290 ,3,1,0.,12.0,0.,12.0,0.,12.0,0.,12.0
1980-11-15 16:19:13.290 ,3,1,0.,12.0,0.,12.0,0.,12.0,0.,12.0
1980-11-15 16:19:25.290 ,3,0,0.,12.0,0.,12.0,0.,12.0,0.,12.0
1980-11-15 16:19:37.290 ,3,0,0.,12.0,0.,12.0,0.,12.0,0.,12.0
1980-11-15 16:19:49.290 ,4,1,0.,12.0,0.,12.0,0.,12.0,0.,12.0
1980-11-15 16:20:01.290 ,4,1,0.,12.0,0.,12.0,0.,12.0,0.,12.0
1980-11-15 16:20:13.290 ,4,0,0.,12.0,0.,12.0,0.,12.0,0.,12.0
1980-11-15 16:20:25.290 ,4,0,0.,12.0,0.,12.0,0.,12.0,0.,12.0
1980-11-15 16:20:37.290 ,5,1,0.,12.0,0.,12.0,0.,12.0,0.,12.0
1980-11-15 16:20:49.290 ,5,1,0.,12.0,0.,12.0,0.,12.0,0.,12.0
1980-11-15 16:21:01.290 ,5,0,0.,12.0,0.,12.0,0.,12.0,0.,12.0
1980-11-15 16:21:13.290 ,5,0,0.,12.0,0.,12.0,0.,12.0,0.,12.0
1980-11-15 16:21:25.290 ,6,1,0.,12.0,0.,12.0,0.,12.0,0.,12.0
1980-11-15 16:21:37.290 ,6,1,0.,12.0,0.,12.0,0.,12.0,0.,12.0
1980-11-15 16:21:49.290 ,6,0,0.,12.0,0.,12.0,0.,12.0,0.,12.0
1980-11-15 16:22:01.290 ,6,0,0.,12.0,0.,12.0,0.,12.0,0.,12.0
1980-11-15 16:22:13.290 ,7,1,0.,12.0,0.,12.0,0.,12.0,0.,12.0
1980-11-15 16:22:25.290 ,7,1,0.,12.0,3.,12.0,0.,12.0,0.,12.0
1980-11-15 16:22:37.290 ,7,0,0.,12.0,4.,12.0,0.,12.0,0.,12.0
1980-11-15 16:22:49.290 ,7,0,0.,12.0,2.,12.0,0.,12.0,0.,12.0
1980-11-15 16:23:01.290 ,7,1,0.,12.0,7.,12.0,0.,12.0,0.,12.0
1980-11-15 16:23:13.290 ,7,1,0.,12.0,1.,12.0,0.,12.0,0.,12.0
1980-11-15 16:23:25.290 ,7,0,0.,12.0,6.,12.0,0.,12.0,0.,12.0
1980-11-15 16:23:37.290 ,7,0,0.,12.0,2.,12.0,0.,12.0,0.,12.0
1980-11-15 16:23:49.290 ,6,1,0.,12.0,6.,12.0,0.,12.0,0.,12.0
1980-11-15 16:24:01.290 ,6,1,0.,12.0,1.,12.0,0.,12.0,0.,12.0
1980-11-15 16:24:13.290 ,6,0,0.,12.0,0.,12.0,0.,12.0,0.,12.0
1980-11-15 16:24:25.290 ,6,0,0.,12.0,0.,12.0,0.,12.0,0.,12.0
1980-11-15 16:24:37.290 ,5,1,0.,12.0,0.,12.0,0.,12.0,0.,12.0
1980-11-15 16:24:49.290 ,5,1,0.,12.0,0.,12.0,0.,12.0,0.,12.0
1980-11-15 16:25:01.290 ,5,0,0.,12.0,0.,12.0,0.,12.0,0.,12.0
1980-11-15 16:25:13.290 ,5,0,0.,12.0,0.,12.0,0.,12.0,0.,12.0
1980-11-15 16:25:25.290 ,4,1,0.,12.0,0.,12.0,0.,12.0,0.,12.0
1980-11-15 16:25:37.290 ,4,1,0.,12.0,0.,12.0,0.,12.0,0.,12.0
1980-11-15 16:25:49.290 ,4,0,0.,12.0,0.,12.0,0.,12.0,0.,12.0
1980-11-15 16:26:01.290 ,4,0,0.,12.0,0.,12.0,0.,12.0,0.,12.0
1980-11-15 16:26:13.290 ,3,1,0.,12.0,0.,12.0,0.,12.0,0.,12.0
1980-11-15 16:26:25.290 ,3,1,0.,12.0,0.,12.0,0.,12.0,0.,12.0
1980-11-15 16:26:37.290 ,3,0,0.,12.0,0.,12.0,0.,12.0,0.,12.0
1980-11-15 16:26:49.290 ,3,0,0.,12.0,0.,12.0,0.,12.0,0.,12.0
1980-11-15 16:27:01.290 ,2,1,0.,12.0,0.,12.0,0.,12.0,0.,12.0
1980-11-15 16:27:13.290 ,2,1,0.,12.0,0.,12.0,0.,12.0,0.,12.0
1980-11-15 16:27:25.290 ,2,0,0.,12.0,0.,12.0,0.,12.0,0.,12.0
1980-11-15 16:27:37.290 ,2,0,0.,12.0,0.,12.0,0.,12.0,0.,12.0
1980-11-15 16:27:49.290 ,1,1,0.,12.0,0.,12.0,0.,12.0,0.,12.0
1980-11-15 16:28:01.290 ,1,1,0.,12.0,0.,12.0,0.,12.0,0.,12.0
1980-11-15 16:28:13.290 ,1,0,0.,12.0,0.,12.0,0.,12.0,0.,12.0
1980-11-15 16:28:25.290 ,1,0,0.,12.0,0.,12.0,0.,12.0,0.,12.0
1980-11-15 16:28:37.290 ,0,1,0.,12.0,0.,12.0,0.,12.0,0.,12.0
1980-11-15 16:28:49.290 ,0,1,0.,12.0,0.,12.0,0.,12.0,0.,12.0
1980-11-15 16:29:01.290 ,0,0,0.,12.0,0.,12.0,0.,12.0,0.,12.0
1980-11-15 16:29:13.290 ,0,0,0.,12.0,0.,12.0,0.,12.0,0.,12.0
1980-11-15 16:29:25.290 ,0,1,0.,12.0,0.,12.0,0.,12.0,0.,12.0
1980-11-15 16:29:37.290 ,0,1,0.,12.0,0.,12.0,0.,12.0,0.,12.0
1980-11-15 16:29:49.290 ,0,0,0.,12.0,0.,12.0,0.,12.0,0.,12.0
1980-11-15 16:30:01.290 ,0,0,0.,12.0,0.,12.0,0.,12.0,0.,12.0
1980-11-15 16:30:13.290 ,1,1,0.,12.0,0.,12.0,0.,12.0,0.,12.0
1980-11-15 16:30:25.290 ,1,1,0.,12.0,0.,12.0,0.,12.0,0.,12.0
1980-11-15 16:30:37.290 ,1,0,0.,12.0,0.,12.0,0.,12.0,0.,12.0
1980-11-15 16:30:49.290 ,1,0,0.,12.0,0.,12.0,0.,12.0,0.,12.0
1980-11-15 16:31:01.290 ,2,1,0.,12.0,0.,12.0,0.,12.0,0.,12.0
1980-11-15 16:31:13.290 ,2,1,0.,12.0,0.,12.0,0.,12.0,0.,12.0
1980-11-15 16:31:25.290 ,2,0,0.,12.0,0.,12.0,0.,12.0,0.,12.0
1980-11-15 16:31:37.290 ,2,0,0.,12.0,0.,12.0,0.,12.0,0.,12.0
1980-11-15 16:31:49.290 ,3,1,0.,12.0,0.,12.0,0.,12.0,0.,12.0
1980-11-15 16:32:01.290 ,3,1,0.,12.0,0.,12.0,0.,12.0,0.,12.0
1980-11-15 16:32:13.290 ,3,0,0.,12.0,0.,12.0,0.,12.0,0.,12.0
1980-11-15 16:32:25.290 ,3,0,0.,12.0,0.,12.0,0.,12.0,0.,12.0
1980-11-15 16:32:37.290 ,4,1,0.,12.0,0.,12.0,0.,12.0,0.,12.0
1980-11-15 16:32:49.290 ,4,1,0.,12.0,0.,12.0,0.,12.0,0.,12.0
1980-11-15 16:33:01.290 ,4,0,0.,12.0,0.,12.0,0.,12.0,0.,12.0
1980-11-15 16:33:13.290 ,4,0,0.,12.0,0.,12.0,0.,12.0,0.,12.0
1980-11-15 16:33:25.290 ,5,1,0.,12.0,0.,12.0,0.,12.0,0.,12.0
1980-11-15 16:33:37.290 ,5,1,0.,12.0,0.,12.0,0.,12.0,0.,12.0
1980-11-15 16:33:49.290 ,5,0,0.,12.0,0.,12.0,0.,12.0,0.,12.0
1980-11-15 16:34:01.290 ,5,0,0.,12.0,0.,12.0,0.,12.0,0.,12.0